Home   Weather   Schaffhausen   Past weeks

Flag for Switzerland Past Weather in Schaffhausen, Schaffhausen, Switzerland — Yesterday and Last 2 Weeks

Now
52 °F

Fog.


Feels Like: 52 °F
Forecast: 42 / 69 °F
Wind: 2 mph from North

Location: Zurich-Kloten

Current Time: Sep 28, 2016 at 12:35:06 AM

Latest Report: Sep 27, 2016 at 11:00 PM


Visibility: 9 mi

Pressure: 30.39 "Hg

Humidity: 97%

Dew Point: 51 °F

Location of SchaffhausenLocation

Past Weather in Schaffhausen — Graph

°F

Schaffhausen Temperature Yesterday

Maximum temperature yesterday: 67 °F (at 4:00 PM)
Minimum temperature yesterday: 52 °F (at 11:00 PM)
Average temperature yesterday: 60 °F

High & Low Weather Summary for the Past Weeks

 TemperatureHumidityPressure
High83 °F (Sep 13, 5:00 PM)100% (Sep 20, 12:00 AM)30.39 "Hg (Sep 20, 12:00 AM)
Low41 °F (Sep 22, 7:00 AM)40% (Sep 25, 4:00 PM)29.80 "Hg (Sep 14, 5:00 PM)
Average59 °F81%30.08 "Hg
* Reported Sep 12 11:00 PM — Sep 27 11:00 PM, Schaffhausen, Weather by CustomWeather, © 2016

Note: Actual official high and low records may vary slightly from our data, if they occured in-between our weather recording intervals... More about our weather records

Advertising

Schaffhausen Weather History for the Previous 24 Hours

Scroll right to see more
 ConditionsComfort  
Time TempWeatherWind HumidityBarometerVisibility
11:00 PM
Tue, Sep 27
52 °FFog.2 mph97%30.39 "Hg9 mi
10:00 PM53 °FCool.2 mph94%30.38 "HgN/A
9:00 PM60 °FCool.5 mph79%30.35 "HgN/A
8:00 PM57 °FClear.1 mph85%30.34 "Hg12 mi
7:00 PM65 °FMild.5 mph64%30.30 "HgN/A
6:00 PM67 °FMild.3 mph60%30.28 "HgN/A
5:00 PM67 °FPassing clouds.2 mph59%30.27 "Hg12 mi
4:00 PM67 °FMild.2 mph57%30.27 "HgN/A
3:00 PM66 °FMild.1 mph61%30.27 "HgN/A
2:00 PM65 °FPartly sunny.6 mph69%30.28 "Hg6 mi
1:00 PM65 °FMild.5 mph69%30.28 "HgN/A
12:00 PM61 °FCool.5 mph80%30.30 "HgN/A
11:00 AM60 °FFog.3 mph85%30.29 "Hg3 mi
10:00 AM59 °FCool.3 mph90%30.28 "HgN/A
9:00 AM58 °FCool.3 mph87%30.27 "HgN/A
8:00 AM58 °FFog.2 mph89%30.24 "Hg6 mi
7:00 AM57 °FCool.3 mph88%30.24 "HgN/A
6:00 AM57 °FCool.5 mph86%30.22 "HgN/A
5:00 AM57 °FOvercast.6 mph89%30.22 "Hg9 mi
4:00 AM58 °FCool.5 mph91%30.20 "HgN/A
3:00 AM59 °FCool.3 mph91%30.19 "HgN/A
2:00 AM59 °FOvercast.5 mph93%30.19 "Hg6 mi
1:00 AM59 °FCool.2 mph91%30.18 "HgN/A
12:00 AM59 °FCool.1 mph89%30.19 "HgN/A
Weather by CustomWeather, © 2016

See weather overviewHow to use our weather pages